START_TIME,STEP,MOV.,AL01,t_acc.,AL02,t_acc.,E37,t_acc.,H21,t_acc.
1979-07-12 18:00:34.670 ,1,1,11.,24.0,1.,24.0,0.,24.0,0.,24.0
1979-07-12 18:00:58.670 ,2,1,6.,24.0,1.,24.0,0.,24.0,0.,24.0
1979-07-12 18:01:22.670 ,6,1,16.,24.0,1.,24.0,0.,24.0,0.,24.0
1979-07-12 18:01:46.670 ,5,1,28.,24.0,3.,24.0,0.,24.0,0.,24.0
1979-07-12 18:02:10.670 ,1,1,10.,24.0,0.,24.0,0.,24.0,0.,24.0
1979-07-12 18:02:34.670 ,2,1,7.,24.0,0.,24.0,0.,24.0,0.,24.0
1979-07-12 18:02:58.670 ,6,1,15.,24.0,2.,24.0,0.,24.0,0.,24.0
1979-07-12 18:03:22.670 ,5,1,20.,24.0,0.,24.0,0.,24.0,0.,24.0
1979-07-12 18:03:46.670 ,1,1,9.,24.0,0.,24.0,0.,24.0,0.,24.0
1979-07-12 18:04:10.670 ,2,1,2.,24.0,0.,24.0,0.,24.0,0.,24.0
1979-07-12 18:04:34.670 ,6,1,14.,24.0,2.,24.0,0.,24.0,0.,24.0
1979-07-12 18:04:58.670 ,5,1,17.,24.0,1.,24.0,0.,24.0,0.,24.0
1979-07-12 18:05:22.670 ,1,1,10.,24.0,3.,24.0,0.,24.0,0.,24.0
1979-07-12 18:05:46.670 ,0,0,5.,24.0,1.,24.0,0.,24.0,0.,24.0
1979-07-12 18:06:10.670 ,0,0,16.,24.0,2.,24.0,0.,24.0,0.,24.0
1979-07-12 18:06:34.670 ,5,1,18.,24.0,1.,24.0,0.,24.0,0.,24.0
1979-07-12 18:06:58.670 ,5,0,10.,24.0,3.,24.0,0.,24.0,0.,24.0
1979-07-12 18:07:22.670 ,4,1,9.,24.0,2.,24.0,0.,24.0,0.,24.0
1979-07-12 18:07:46.670 ,4,0,9.,24.0,0.,24.0,0.,24.0,0.,24.0
1979-07-12 18:08:10.670 ,3,1,5.,24.0,0.,24.0,0.,24.0,0.,24.0
1979-07-12 18:08:34.670 ,3,0,9.,24.0,0.,24.0,0.,24.0,0.,24.0
1979-07-12 18:08:58.670 ,2,1,9.,24.0,2.,24.0,0.,24.0,0.,24.0
1979-07-12 18:09:22.670 ,2,0,9.,24.0,2.,24.0,0.,24.0,0.,24.0
1979-07-12 18:09:46.670 ,1,1,2.,24.0,1.,24.0,0.,24.0,0.,24.0
1979-07-12 18:10:10.670 ,1,0,5.,24.0,0.,24.0,0.,24.0,0.,24.0
1979-07-12 18:10:34.670 ,0,1,5.,24.0,2.,24.0,0.,24.0,0.,24.0
1979-07-12 18:10:58.670 ,0,0,7.,24.0,0.,24.0,0.,24.0,0.,24.0
1979-07-12 18:11:22.670 ,0,1,4.,24.0,0.,24.0,0.,24.0,0.,24.0
1979-07-12 18:11:46.670 ,0,0,4.,24.0,1.,24.0,0.,24.0,0.,24.0
1979-07-12 18:12:10.670 ,1,1,0.,24.0,0.,24.0,0.,24.0,0.,24.0
1979-07-12 18:12:34.670 ,1,0,9.,24.0,0.,24.0,0.,24.0,0.,24.0
1979-07-12 18:12:58.670 ,2,1,7.,24.0,3.,24.0,0.,24.0,0.,24.0
1979-07-12 18:13:22.670 ,2,0,5.,24.0,1.,24.0,0.,24.0,0.,24.0
1979-07-12 18:13:46.670 ,3,1,11.,24.0,2.,24.0,0.,24.0,0.,24.0
1979-07-12 18:14:10.670 ,3,0,7.,24.0,0.,24.0,0.,24.0,0.,24.0
1979-07-12 18:14:34.670 ,4,1,4.,24.0,0.,24.0,0.,24.0,0.,24.0
1979-07-12 18:14:58.670 ,4,0,8.,24.0,0.,24.0,0.,24.0,0.,24.0
1979-07-12 18:15:22.670 ,5,1,9.,24.0,3.,24.0,0.,24.0,0.,24.0
1979-07-12 18:15:46.670 ,5,0,9.,24.0,1.,24.0,0.,24.0,0.,24.0
1979-07-12 18:16:10.670 ,6,1,18.,24.0,1.,24.0,0.,24.0,0.,24.0
1979-07-12 18:16:34.670 ,6,0,10.,24.0,2.,24.0,0.,24.0,0.,24.0
1979-07-12 18:16:58.670 ,7,1,16.,24.0,2.,24.0,0.,24.0,0.,24.0
1979-07-12 18:17:22.670 ,7,0,37.,24.0,0.,24.0,0.,24.0,0.,24.0
1979-07-12 18:17:46.670 ,7,1,37.,24.0,0.,24.0,0.,24.0,0.,24.0
1979-07-12 18:18:10.670 ,7,0,32.,24.0,0.,24.0,0.,24.0,0.,24.0
1979-07-12 18:18:34.670 ,6,1,37.,24.0,0.,24.0,0.,24.0,0.,24.0
1979-07-12 18:18:58.670 ,6,0,8.,24.0,1.,24.0,0.,24.0,0.,24.0
1979-07-12 18:20:10.670 ,0,0,9.,24.0,1.,24.0,0.,24.0,0.,24.0
1979-07-12 18:20:34.670 ,0,0,10.,24.0,0.,24.0,0.,24.0,0.,24.0
1979-07-12 18:20:58.670 ,3,1,5.,24.0,1.,24.0,0.,24.0,0.,24.0
1979-07-12 18:21:22.670 ,3,0,9.,24.0,0.,24.0,0.,24.0,0.,24.0
1979-07-12 18:21:46.670 ,2,1,11.,24.0,2.,24.0,0.,24.0,0.,24.0
1979-07-12 18:22:10.670 ,2,0,6.,24.0,1.,24.0,0.,24.0,0.,24.0
1979-07-12 18:22:34.670 ,1,1,9.,24.0,0.,24.0,0.,24.0,0.,24.0
1979-07-12 18:22:58.670 ,1,0,5.,24.0,1.,24.0,0.,24.0,0.,24.0
1979-07-12 18:23:22.670 ,0,1,2.,24.0,3.,24.0,0.,24.0,0.,24.0
1979-07-12 18:23:46.670 ,0,0,5.,24.0,1.,24.0,0.,24.0,0.,24.0
1979-07-12 18:24:10.670 ,0,1,4.,24.0,0.,24.0,0.,24.0,0.,24.0
1979-07-12 18:24:34.670 ,0,0,4.,24.0,1.,24.0,0.,24.0,0.,24.0
1979-07-12 18:24:58.670 ,1,1,3.,24.0,0.,24.0,0.,24.0,0.,24.0
1979-07-12 18:25:22.670 ,1,0,6.,24.0,2.,24.0,0.,24.0,0.,24.0
1979-07-12 18:25:46.670 ,2,1,4.,24.0,0.,24.0,0.,24.0,0.,24.0
1979-07-12 18:26:10.670 ,2,0,6.,24.0,0.,24.0,0.,24.0,0.,24.0
1979-07-12 18:26:34.670 ,3,1,4.,24.0,1.,24.0,0.,24.0,0.,24.0
1979-07-12 18:26:58.670 ,3,0,5.,24.0,0.,24.0,0.,24.0,0.,24.0
1979-07-12 18:27:22.670 ,4,1,9.,24.0,0.,24.0,0.,24.0,0.,24.0
1979-07-12 18:27:46.670 ,4,0,10.,24.0,0.,24.0,0.,24.0,0.,24.0
1979-07-12 18:28:10.670 ,5,1,13.,24.0,3.,24.0,0.,24.0,0.,24.0
1979-07-12 18:28:34.670 ,5,0,9.,24.0,0.,24.0,0.,24.0,0.,24.0
1979-07-12 18:28:58.670 ,6,1,15.,24.0,0.,24.0,0.,24.0,0.,24.0
1979-07-12 18:29:22.670 ,6,0,8.,24.0,1.,24.0,0.,24.0,0.,24.0
1979-07-12 18:29:46.670 ,7,1,9.,24.0,1.,24.0,0.,24.0,0.,24.0
1979-07-12 18:30:10.670 ,7,0,23.,24.0,0.,24.0,0.,24.0,0.,24.0
1979-07-12 18:30:34.670 ,7,1,32.,24.0,0.,24.0,0.,24.0,0.,24.0
1979-07-12 18:30:58.670 ,7,0,33.,24.0,0.,24.0,0.,24.0,0.,24.0
1979-07-12 18:31:22.670 ,6,1,28.,24.0,0.,24.0,0.,24.0,0.,24.0
1979-07-12 18:31:46.670 ,6,0,5.,24.0,0.,24.0,0.,24.0,0.,24.0
1979-07-12 18:32:10.670 ,5,1,6.,24.0,1.,24.0,0.,24.0,0.,24.0
1979-07-12 18:32:34.670 ,5,0,6.,24.0,0.,24.0,0.,24.0,0.,24.0
1979-07-12 18:32:58.670 ,4,1,4.,24.0,0.,24.0,0.,24.0,0.,24.0
1979-07-12 18:33:22.670 ,4,0,7.,24.0,0.,24.0,0.,24.0,0.,24.0
1979-07-12 18:33:46.670 ,3,1,7.,24.0,3.,24.0,0.,24.0,0.,24.0
1979-07-12 18:34:10.670 ,3,0,6.,24.0,1.,24.0,0.,24.0,0.,24.0
1979-07-12 18:34:34.670 ,2,1,6.,24.0,0.,24.0,0.,24.0,0.,24.0
1979-07-12 18:34:58.670 ,2,0,1.,24.0,0.,24.0,0.,24.0,0.,24.0
1979-07-12 18:35:22.670 ,1,1,7.,24.0,2.,24.0,0.,24.0,0.,24.0
1979-07-12 18:35:46.670 ,1,0,6.,24.0,0.,24.0,0.,24.0,0.,24.0
1979-07-12 18:36:10.670 ,0,1,5.,24.0,0.,24.0,0.,24.0,0.,24.0
1979-07-12 18:36:34.670 ,0,0,2.,24.0,1.,24.0,0.,24.0,0.,24.0
1979-07-12 18:36:58.670 ,0,1,4.,24.0,1.,24.0,0.,24.0,0.,24.0
1979-07-12 18:37:22.670 ,0,0,5.,24.0,0.,24.0,0.,24.0,0.,24.0
1979-07-12 18:38:34.670 ,0,0,4.,24.0,1.,24.0,0.,24.0,0.,24.0
1979-07-12 18:38:58.670 ,0,0,3.,24.0,1.,24.0,0.,24.0,0.,24.0
1979-07-12 18:39:22.670 ,3,1,6.,24.0,2.,24.0,0.,24.0,0.,24.0
1979-07-12 18:39:46.670 ,3,0,5.,24.0,0.,24.0,0.,24.0,0.,24.0
1979-07-12 18:40:10.670 ,4,1,4.,24.0,0.,24.0,0.,24.0,0.,24.0
1979-07-12 18:40:34.670 ,4,0,0.,24.0,0.,24.0,0.,24.0,0.,24.0
1979-07-12 18:40:58.670 ,5,1,9.,24.0,0.,24.0,0.,24.0,0.,24.0
1979-07-12 18:41:22.670 ,5,0,8.,24.0,3.,24.0,0.,24.0,0.,24.0
1979-07-12 18:41:46.670 ,6,1,1.,24.0,1.,24.0,0.,24.0,0.,24.0
1979-07-12 18:42:10.670 ,6,0,4.,24.0,3.,24.0,0.,24.0,0.,24.0
1979-07-12 18:42:34.670 ,7,0,11.,24.0,0.,24.0,0.,24.0,0.,24.0
1979-07-12 18:42:58.670 ,7,0,40.,24.0,0.,24.0,0.,24.0,0.,24.0
1979-07-12 18:43:22.670 ,5,1,13.,24.0,1.,24.0,0.,24.0,0.,24.0
1979-07-12 18:43:46.670 ,1,1,4.,24.0,0.,24.0,0.,24.0,0.,24.0
1979-07-12 18:44:10.670 ,2,1,1.,24.0,2.,24.0,0.,24.0,0.,24.0
1979-07-12 18:44:34.670 ,6,1,7.,24.0,1.,24.0,0.,24.0,0.,24.0
1979-07-12 18:44:58.670 ,5,1,17.,24.0,0.,24.0,0.,24.0,0.,24.0
1979-07-12 18:45:22.670 ,1,1,6.,24.0,2.,24.0,0.,24.0,0.,24.0
1979-07-12 18:45:46.670 ,2,1,4.,24.0,0.,24.0,0.,24.0,0.,24.0
1979-07-12 18:46:10.670 ,6,1,5.,24.0,1.,24.0,0.,24.0,0.,24.0
1979-07-12 18:46:34.670 ,5,1,16.,24.0,0.,24.0,0.,24.0,0.,24.0
1979-07-12 18:46:58.670 ,1,1,4.,24.0,0.,24.0,0.,24.0,0.,24.0
1979-07-12 18:47:22.670 ,2,1,5.,24.0,0.,24.0,0.,24.0,0.,24.0
1979-07-12 18:47:46.670 ,6,1,3.,24.0,0.,24.0,0.,24.0,0.,24.0
1979-07-12 18:48:10.670 ,5,1,14.,24.0,3.,24.0,0.,24.0,0.,24.0
1979-07-12 18:48:34.670 ,1,1,5.,24.0,0.,24.0,0.,24.0,0.,24.0
1979-07-12 18:48:58.670 ,2,1,2.,24.0,1.,24.0,0.,24.0,0.,24.0
1979-07-12 18:49:22.670 ,6,1,6.,24.0,2.,24.0,0.,24.0,0.,24.0
1979-07-12 18:49:46.670 ,5,1,24.,24.0,0.,24.0,0.,24.0,0.,24.0
1979-07-12 18:50:10.670 ,1,1,2.,24.0,0.,24.0,0.,24.0,0.,24.0
1979-07-12 18:50:34.670 ,2,1,2.,24.0,0.,24.0,0.,24.0,0.,24.0
1979-07-12 18:50:58.670 ,6,1,5.,24.0,1.,24.0,0.,24.0,0.,24.0
1979-07-12 18:51:22.670 ,5,1,24.,24.0,0.,24.0,0.,24.0,0.,24.0
1979-07-12 18:51:46.670 ,1,1,2.,24.0,1.,24.0,0.,24.0,0.,24.0
1979-07-12 18:52:10.670 ,2,1,0.,24.0,1.,24.0,0.,24.0,0.,24.0
1979-07-12 18:52:34.670 ,6,1,5.,24.0,1.,24.0,0.,24.0,0.,24.0
1979-07-12 18:52:58.670 ,5,1,8.,24.0,0.,24.0,0.,24.0,0.,24.0
1979-07-12 18:53:22.670 ,1,1,3.,24.0,2.,24.0,0.,24.0,0.,24.0
1979-07-12 18:53:46.670 ,0,0,2.,24.0,0.,24.0,0.,24.0,0.,24.0
1979-07-12 18:54:10.670 ,0,0,8.,24.0,0.,24.0,0.,24.0,0.,24.0
1979-07-12 18:54:34.670 ,5,1,22.,24.0,0.,24.0,0.,24.0,0.,24.0
1979-07-12 18:54:58.670 ,5,0,0.,24.0,1.,24.0,0.,24.0,0.,24.0
1979-07-12 18:55:22.670 ,4,1,5.,24.0,1.,24.0,0.,24.0,0.,24.0
1979-07-12 18:55:46.670 ,4,0,7.,24.0,1.,24.0,0.,24.0,0.,24.0
1979-07-12 18:56:10.670 ,3,1,6.,24.0,1.,24.0,0.,24.0,0.,24.0
1979-07-12 18:56:34.670 ,3,0,6.,24.0,1.,24.0,0.,24.0,0.,24.0
1979-07-12 18:56:58.670 ,2,1,4.,24.0,0.,24.0,0.,24.0,0.,24.0
1979-07-12 18:57:22.670 ,2,0,3.,24.0,0.,24.0,0.,24.0,0.,24.0
1979-07-12 18:57:46.670 ,1,1,5.,24.0,0.,24.0,0.,24.0,0.,24.0
1979-07-12 18:58:10.670 ,1,0,0.,24.0,0.,24.0,0.,24.0,0.,24.0
1979-07-12 18:58:34.670 ,0,1,2.,24.0,0.,24.0,0.,24.0,0.,24.0
1979-07-12 18:58:58.670 ,0,0,0.,24.0,0.,24.0,0.,24.0,0.,24.0
1979-07-12 18:59:22.670 ,0,1,1.,24.0,0.,24.0,0.,24.0,0.,24.0
1979-07-12 18:59:46.670 ,0,0,2.,24.0,0.,24.0,0.,24.0,0.,24.0
1979-07-12 19:00:10.670 ,1,1,1.,24.0,1.,24.0,0.,24.0,0.,24.0
1979-07-12 19:00:34.670 ,0,0,,0,,0,,0,,0
1979-07-12 19:00:41.870 ,0,0,1.,24.0,0.,24.0,0.,24.0,0.,24.0
1979-07-12 19:00:58.670 ,2,1,1.,24.0,0.,24.0,0.,24.0,0.,24.0
1979-07-12 19:01:22.670 ,2,0,3.,24.0,0.,24.0,0.,24.0,0.,24.0
1979-07-12 19:01:46.670 ,3,1,5.,24.0,1.,24.0,0.,24.0,0.,24.0
1979-07-12 19:02:10.670 ,3,0,4.,24.0,2.,24.0,0.,24.0,0.,24.0
1979-07-12 19:02:34.670 ,4,1,10.,24.0,0.,24.0,0.,24.0,0.,24.0
1979-07-12 19:02:58.670 ,4,0,7.,24.0,2.,24.0,0.,24.0,0.,24.0
1979-07-12 19:03:22.670 ,5,1,8.,24.0,1.,24.0,0.,24.0,0.,24.0
1979-07-12 19:03:46.670 ,5,0,5.,24.0,1.,24.0,0.,24.0,0.,24.0
1979-07-12 19:04:10.670 ,6,1,5.,24.0,0.,24.0,0.,24.0,0.,24.0
1979-07-12 19:04:34.670 ,6,0,7.,24.0,0.,24.0,0.,24.0,0.,24.0
1979-07-12 19:04:58.670 ,7,1,11.,24.0,0.,24.0,0.,24.0,0.,24.0
1979-07-12 19:05:22.670 ,7,0,22.,24.0,0.,24.0,0.,24.0,0.,24.0
1979-07-12 19:05:46.670 ,7,1,26.,24.0,0.,24.0,0.,24.0,0.,24.0
1979-07-12 19:06:10.670 ,7,0,25.,24.0,0.,24.0,0.,24.0,0.,24.0
1979-07-12 19:06:34.670 ,6,1,22.,24.0,2.,24.0,0.,24.0,0.,24.0
1979-07-12 19:06:58.670 ,6,0,7.,24.0,1.,24.0,0.,24.0,0.,24.0
1979-07-12 19:07:22.670 ,5,1,7.,24.0,0.,24.0,0.,24.0,0.,24.0
1979-07-12 19:07:46.670 ,5,0,5.,24.0,4.,24.0,0.,24.0,0.,24.0
1979-07-12 19:10:34.670 ,0,0,0.,24.0,1.,24.0,0.,24.0,0.,24.0
1979-07-12 19:10:58.670 ,0,0,2.,24.0,1.,24.0,0.,24.0,0.,24.0
1979-07-12 19:11:22.670 ,0,1,3.,24.0,1.,24.0,0.,24.0,0.,24.0
1979-07-12 19:11:46.670 ,0,0,2.,24.0,1.,24.0,0.,24.0,0.,24.0
1979-07-12 19:12:10.670 ,0,1,0.,24.0,1.,24.0,0.,24.0,0.,24.0
1979-07-12 19:12:34.670 ,0,0,3.,24.0,1.,24.0,0.,24.0,0.,24.0
1979-07-12 19:12:58.670 ,1,1,2.,24.0,2.,24.0,0.,24.0,0.,24.0
1979-07-12 19:13:22.670 ,1,0,2.,24.0,1.,24.0,0.,24.0,0.,24.0
1979-07-12 19:13:46.670 ,2,1,1.,24.0,2.,24.0,0.,24.0,0.,24.0
1979-07-12 19:14:10.670 ,2,0,2.,24.0,0.,24.0,0.,24.0,0.,24.0
1979-07-12 19:14:34.670 ,3,1,6.,24.0,0.,24.0,0.,24.0,0.,24.0
1979-07-12 19:14:58.670 ,3,0,9.,24.0,0.,24.0,0.,24.0,0.,24.0
1979-07-12 19:15:22.670 ,4,1,2.,24.0,1.,24.0,0.,24.0,0.,24.0
1979-07-12 19:15:46.670 ,4,0,9.,24.0,0.,24.0,0.,24.0,0.,24.0
1979-07-12 19:16:10.670 ,5,1,7.,24.0,3.,24.0,0.,24.0,0.,24.0
1979-07-12 19:16:34.670 ,5,0,5.,24.0,0.,24.0,0.,24.0,0.,24.0
1979-07-12 19:16:58.670 ,6,1,9.,24.0,3.,24.0,0.,24.0,0.,24.0
1979-07-12 19:17:22.670 ,6,0,7.,24.0,1.,24.0,0.,24.0,0.,24.0
1979-07-12 19:17:46.670 ,7,1,6.,24.0,0.,24.0,0.,24.0,0.,24.0
1979-07-12 19:18:10.670 ,7,0,35.,24.0,0.,24.0,0.,24.0,0.,24.0
1979-07-12 19:18:34.670 ,7,1,23.,24.0,0.,24.0,0.,24.0,0.,24.0
1979-07-12 19:18:58.670 ,7,0,33.,24.0,0.,24.0,0.,24.0,0.,24.0
1979-07-12 19:19:22.670 ,6,1,21.,24.0,0.,24.0,0.,24.0,0.,24.0
1979-07-12 19:19:46.670 ,6,0,6.,24.0,1.,24.0,0.,24.0,0.,24.0
1979-07-12 19:20:10.670 ,5,1,4.,24.0,2.,24.0,0.,24.0,0.,24.0
1979-07-12 19:20:34.670 ,5,0,10.,24.0,4.,24.0,0.,24.0,0.,24.0
1979-07-12 19:20:58.670 ,4,1,7.,24.0,0.,24.0,0.,24.0,0.,24.0
1979-07-12 19:21:22.670 ,4,0,5.,24.0,1.,24.0,0.,24.0,0.,24.0
1979-07-12 19:21:46.670 ,3,1,6.,24.0,1.,24.0,0.,24.0,0.,24.0
1979-07-12 19:22:10.670 ,3,0,4.,24.0,0.,24.0,0.,24.0,0.,24.0
1979-07-12 19:22:34.670 ,2,1,3.,24.0,0.,24.0,0.,24.0,0.,24.0
1979-07-12 19:22:58.670 ,2,0,6.,24.0,1.,24.0,0.,24.0,0.,24.0
1979-07-12 19:23:22.670 ,1,1,3.,24.0,2.,24.0,0.,24.0,0.,24.0
1979-07-12 19:23:46.670 ,1,0,4.,24.0,1.,24.0,0.,24.0,0.,24.0
1979-07-12 19:24:10.670 ,0,1,3.,24.0,2.,24.0,0.,24.0,0.,24.0
1979-07-12 19:24:34.670 ,0,0,1.,24.0,0.,24.0,0.,24.0,0.,24.0
1979-07-12 19:24:34.670 ,0,0,1.,24.0,0.,24.0,0.,24.0,0.,24.0
1979-07-12 19:24:58.670 ,0,1,0.,24.0,0.,24.0,0.,24.0,0.,24.0
1979-07-12 19:25:22.670 ,0,0,1.,24.0,0.,24.0,0.,24.0,0.,24.0
1979-07-12 19:25:46.670 ,1,1,1.,24.0,1.,24.0,0.,24.0,0.,24.0
1979-07-12 19:26:10.670 ,1,0,2.,24.0,0.,24.0,0.,24.0,0.,24.0
1979-07-12 19:26:34.670 ,2,1,2.,24.0,0.,24.0,0.,24.0,0.,24.0
1979-07-12 19:26:58.670 ,2,0,3.,24.0,0.,24.0,0.,24.0,0.,24.0
1979-07-12 19:27:22.670 ,3,1,5.,24.0,1.,24.0,0.,24.0,0.,24.0
1979-07-12 19:27:46.670 ,3,0,7.,24.0,0.,24.0,0.,24.0,0.,24.0
1979-07-12 19:28:58.670 ,0,0,5.,24.0,1.,24.0,0.,24.0,0.,24.0
1979-07-12 19:29:22.670 ,0,0,7.,24.0,0.,24.0,0.,24.0,0.,24.0
1979-07-12 19:29:46.670 ,6,1,11.,24.0,2.,24.0,0.,24.0,0.,24.0
1979-07-12 19:30:10.670 ,6,0,3.,24.0,1.,24.0,0.,24.0,0.,24.0
1979-07-12 19:30:34.670 ,7,0,6.,24.0,0.,24.0,0.,24.0,0.,24.0
1979-07-12 19:30:58.670 ,7,0,27.,24.0,0.,24.0,0.,24.0,0.,24.0
1979-07-12 19:31:22.670 ,5,1,26.,24.0,1.,24.0,0.,24.0,0.,24.0
1979-07-12 19:31:46.670 ,1,1,11.,24.0,2.,24.0,0.,24.0,0.,24.0
1979-07-12 19:32:10.670 ,2,1,6.,24.0,4.,24.0,0.,24.0,0.,24.0
1979-07-12 19:32:34.670 ,6,1,12.,24.0,2.,24.0,0.,24.0,0.,24.0
1979-07-12 19:32:58.670 ,5,1,20.,24.0,0.,24.0,0.,24.0,0.,24.0
1979-07-12 19:33:22.670 ,1,1,10.,24.0,1.,24.0,0.,24.0,0.,24.0
1979-07-12 19:33:46.670 ,2,1,8.,24.0,0.,24.0,0.,24.0,0.,24.0
1979-07-12 19:34:10.670 ,6,1,8.,24.0,1.,24.0,0.,24.0,0.,24.0
1979-07-12 19:34:34.670 ,5,1,16.,24.0,1.,24.0,0.,24.0,0.,24.0
1979-07-12 19:34:58.670 ,1,1,5.,24.0,4.,24.0,0.,24.0,0.,24.0
1979-07-12 19:35:22.670 ,2,1,5.,24.0,0.,24.0,0.,24.0,0.,24.0
1979-07-12 19:35:46.670 ,6,1,5.,24.0,1.,24.0,0.,24.0,0.,24.0
1979-07-12 19:36:10.670 ,5,1,27.,24.0,1.,24.0,0.,24.0,0.,24.0
1979-07-12 19:36:34.670 ,1,1,4.,24.0,3.,24.0,0.,24.0,0.,24.0
1979-07-12 19:36:58.670 ,0,0,2.,24.0,1.,24.0,0.,24.0,0.,24.0
1979-07-12 19:37:22.670 ,0,0,12.,24.0,3.,24.0,0.,24.0,0.,24.0
1979-07-12 19:37:46.670 ,5,1,26.,24.0,0.,24.0,0.,24.0,0.,24.0
1979-07-12 19:38:10.670 ,1,1,5.,24.0,0.,24.0,0.,24.0,0.,24.0
1979-07-12 19:38:34.670 ,2,1,0.,24.0,1.,24.0,0.,24.0,0.,24.0
1979-07-12 19:38:58.670 ,6,1,19.,24.0,1.,24.0,0.,24.0,0.,24.0
1979-07-12 19:39:22.670 ,5,1,23.,24.0,0.,24.0,0.,24.0,0.,24.0
1979-07-12 19:39:46.670 ,1,1,6.,24.0,0.,24.0,0.,24.0,0.,24.0
1979-07-12 19:40:58.670 ,0,0,19.,24.0,1.,24.0,0.,24.0,0.,24.0
1979-07-12 19:41:22.670 ,1,1,2.,24.0,4.,24.0,0.,24.0,0.,24.0
1979-07-12 19:41:46.670 ,0,0,3.,24.0,0.,24.0,0.,24.0,0.,24.0
1979-07-12 19:42:10.670 ,0,0,3.,24.0,0.,24.0,0.,24.0,0.,24.0
1979-07-12 19:42:34.670 ,5,1,20.,24.0,0.,24.0,0.,24.0,0.,24.0
1979-07-12 19:42:58.670 ,5,0,6.,24.0,2.,24.0,0.,24.0,0.,24.0
1979-07-12 19:43:22.670 ,4,1,7.,24.0,1.,24.0,0.,24.0,0.,24.0
1979-07-12 19:43:46.670 ,4,0,6.,24.0,0.,24.0,0.,24.0,0.,24.0
1979-07-12 19:44:10.670 ,3,1,7.,24.0,2.,24.0,0.,24.0,0.,24.0
1979-07-12 19:44:34.670 ,3,0,7.,24.0,1.,24.0,0.,24.0,0.,24.0
1979-07-12 19:44:58.670 ,2,1,1.,24.0,1.,24.0,0.,24.0,0.,24.0
1979-07-12 19:45:22.670 ,2,0,4.,24.0,0.,24.0,0.,24.0,0.,24.0
1979-07-12 19:45:46.670 ,1,1,7.,24.0,1.,24.0,0.,24.0,0.,24.0
1979-07-12 19:46:10.670 ,1,0,3.,24.0,1.,24.0,0.,24.0,0.,24.0
1979-07-12 19:46:34.670 ,0,1,3.,24.0,2.,24.0,0.,24.0,0.,24.0
1979-07-12 19:46:58.670 ,0,0,3.,24.0,1.,24.0,0.,24.0,0.,24.0
1979-07-12 19:47:22.670 ,0,1,2.,24.0,0.,24.0,0.,24.0,0.,24.0
1979-07-12 19:47:46.670 ,0,0,1.,24.0,0.,24.0,0.,24.0,0.,24.0
1979-07-12 19:48:10.670 ,1,1,3.,24.0,1.,24.0,0.,24.0,0.,24.0
1979-07-12 19:48:34.670 ,1,0,5.,24.0,0.,24.0,0.,24.0,0.,24.0
1979-07-12 19:48:58.670 ,2,1,8.,24.0,0.,24.0,0.,24.0,0.,24.0
1979-07-12 19:49:22.670 ,2,0,3.,24.0,1.,24.0,0.,24.0,0.,24.0
1979-07-12 19:49:46.670 ,3,1,5.,24.0,0.,24.0,0.,24.0,0.,24.0
1979-07-12 19:50:10.670 ,3,0,3.,24.0,2.,24.0,0.,24.0,0.,24.0
1979-07-12 19:50:34.670 ,4,1,9.,24.0,1.,24.0,0.,24.0,0.,24.0
1979-07-12 19:50:58.670 ,4,0,4.,24.0,1.,24.0,0.,24.0,0.,24.0
1979-07-12 19:51:22.670 ,5,1,3.,24.0,0.,24.0,0.,24.0,0.,24.0
1979-07-12 19:51:46.670 ,5,0,7.,24.0,3.,24.0,0.,24.0,0.,24.0
1979-07-12 19:52:10.670 ,6,1,3.,24.0,1.,24.0,0.,24.0,0.,24.0
1979-07-12 19:52:34.670 ,6,0,2.,24.0,2.,24.0,0.,24.0,0.,24.0
1979-07-12 19:52:58.670 ,7,1,11.,24.0,0.,24.0,0.,24.0,0.,24.0
1979-07-12 19:53:22.670 ,7,0,33.,24.0,0.,24.0,0.,24.0,0.,24.0
1979-07-12 19:53:46.670 ,7,1,36.,24.0,0.,24.0,0.,24.0,0.,24.0
1979-07-12 19:54:10.670 ,7,0,33.,24.0,0.,24.0,0.,24.0,0.,24.0
1979-07-12 19:54:34.670 ,6,1,24.,24.0,0.,24.0,0.,24.0,0.,24.0
1979-07-12 19:54:58.670 ,6,0,3.,24.0,1.,24.0,0.,24.0,0.,24.0
1979-07-12 19:55:22.670 ,5,1,4.,24.0,2.,24.0,0.,24.0,0.,24.0
1979-07-12 19:55:46.670 ,5,0,7.,24.0,1.,24.0,0.,24.0,0.,24.0
1979-07-12 19:56:10.670 ,4,1,6.,24.0,1.,24.0,0.,24.0,0.,24.0
1979-07-12 19:56:34.670 ,4,0,5.,24.0,1.,24.0,0.,24.0,0.,24.0
1979-07-12 19:56:58.670 ,3,1,4.,24.0,3.,24.0,0.,24.0,0.,24.0
1979-07-12 19:57:22.670 ,3,0,4.,24.0,1.,24.0,0.,24.0,0.,24.0
1979-07-12 19:57:46.670 ,2,1,4.,24.0,1.,24.0,0.,24.0,0.,24.0
1979-07-12 19:58:10.670 ,2,0,2.,24.0,1.,24.0,0.,24.0,0.,24.0
1979-07-12 19:58:34.670 ,1,1,6.,24.0,0.,24.0,0.,24.0,0.,24.0
1979-07-12 19:58:58.670 ,1,0,5.,24.0,1.,24.0,0.,24.0,0.,24.0
1979-07-12 19:59:22.670 ,0,1,3.,24.0,1.,24.0,0.,24.0,0.,24.0
1979-07-12 19:59:46.670 ,0,0,3.,24.0,0.,24.0,0.,24.0,0.,24.0
1979-07-12 20:00:10.670 ,0,1,1.,24.0,2.,24.0,0.,24.0,0.,24.0
1979-07-12 20:00:34.670 ,0,0,0.,24.0,0.,24.0,0.,24.0,0.,24.0
1979-07-12 20:00:58.670 ,1,1,4.,24.0,1.,24.0,0.,24.0,0.,24.0
1979-07-12 20:01:22.670 ,1,0,2.,24.0,0.,24.0,0.,24.0,0.,24.0
1979-07-12 20:01:46.670 ,2,1,1.,24.0,1.,24.0,0.,24.0,0.,24.0
1979-07-12 20:02:10.670 ,2,0,4.,24.0,1.,24.0,0.,24.0,0.,24.0
1979-07-12 20:02:34.670 ,3,1,3.,24.0,1.,24.0,0.,24.0,0.,24.0
1979-07-12 20:02:58.670 ,3,0,4.,24.0,1.,24.0,0.,24.0,0.,24.0
1979-07-12 20:03:22.670 ,4,1,5.,24.0,0.,24.0,0.,24.0,0.,24.0
1979-07-12 20:03:46.670 ,4,0,8.,24.0,0.,24.0,0.,24.0,0.,24.0
1979-07-12 20:04:10.670 ,5,1,4.,24.0,0.,24.0,0.,24.0,0.,24.0
1979-07-12 20:04:34.670 ,5,0,8.,24.0,1.,24.0,0.,24.0,0.,24.0
1979-07-12 20:05:46.670 ,0,0,6.,24.0,2.,24.0,0.,24.0,0.,24.0
1979-07-12 20:06:10.670 ,0,0,36.,24.0,0.,24.0,0.,24.0,0.,24.0
1979-07-12 20:06:34.670 ,7,1,34.,24.0,0.,24.0,0.,24.0,0.,24.0
1979-07-12 20:06:58.670 ,7,0,27.,24.0,0.,24.0,0.,24.0,0.,24.0
1979-07-12 20:07:22.670 ,6,1,27.,24.0,0.,24.0,0.,24.0,0.,24.0
1979-07-12 20:07:46.670 ,6,0,1.,24.0,0.,24.0,0.,24.0,0.,24.0
1979-07-12 20:08:10.670 ,5,1,3.,24.0,2.,24.0,0.,24.0,0.,24.0
1979-07-12 20:08:34.670 ,5,0,3.,24.0,0.,24.0,0.,24.0,0.,24.0
1979-07-12 20:08:58.670 ,4,1,8.,24.0,4.,24.0,0.,24.0,0.,24.0
1979-07-12 20:09:22.670 ,4,0,8.,24.0,1.,24.0,0.,24.0,0.,24.0
1979-07-12 20:09:46.670 ,3,1,6.,24.0,1.,24.0,0.,24.0,0.,24.0
1979-07-12 20:10:10.670 ,3,0,4.,24.0,1.,24.0,0.,24.0,0.,24.0
1979-07-12 20:10:34.670 ,2,1,4.,24.0,0.,24.0,0.,24.0,0.,24.0
1979-07-12 20:10:58.670 ,2,0,3.,24.0,1.,24.0,0.,24.0,0.,24.0
1979-07-12 20:11:22.670 ,1,1,3.,24.0,0.,24.0,0.,24.0,0.,24.0
1979-07-12 20:11:46.670 ,1,0,4.,24.0,1.,24.0,0.,24.0,0.,24.0
1979-07-12 20:12:10.670 ,0,1,3.,24.0,0.,24.0,0.,24.0,0.,24.0
1979-07-12 20:12:34.670 ,0,0,4.,24.0,0.,24.0,0.,24.0,0.,24.0
1979-07-12 20:12:58.670 ,0,1,3.,24.0,0.,24.0,0.,24.0,0.,24.0
1979-07-12 20:13:22.670 ,0,0,2.,24.0,2.,24.0,0.,24.0,0.,24.0
1979-07-12 20:13:46.670 ,1,1,4.,24.0,0.,24.0,0.,24.0,0.,24.0
1979-07-12 20:14:10.670 ,1,0,5.,24.0,1.,24.0,0.,24.0,0.,24.0
1979-07-12 20:14:34.670 ,2,1,4.,24.0,0.,24.0,0.,24.0,0.,24.0
1979-07-12 20:14:58.670 ,2,0,4.,24.0,0.,24.0,0.,24.0,0.,24.0
1979-07-12 20:15:22.670 ,3,1,5.,24.0,1.,24.0,0.,24.0,0.,24.0
1979-07-12 20:15:46.670 ,3,0,2.,24.0,1.,24.0,0.,24.0,0.,24.0
1979-07-12 20:16:10.670 ,4,1,3.,24.0,0.,24.0,0.,24.0,0.,24.0
1979-07-12 20:16:34.670 ,4,0,8.,24.0,3.,24.0,0.,24.0,0.,24.0
1979-07-12 20:16:58.670 ,5,1,2.,24.0,1.,24.0,0.,24.0,0.,24.0
1979-07-12 20:17:22.670 ,5,0,4.,24.0,0.,24.0,0.,24.0,0.,24.0
1979-07-12 20:17:46.670 ,6,1,5.,24.0,1.,24.0,0.,24.0,0.,24.0
1979-07-12 20:18:10.670 ,6,0,4.,24.0,1.,24.0,0.,24.0,0.,24.0
1979-07-12 20:18:34.670 ,7,0,8.,24.0,0.,24.0,0.,24.0,0.,24.0
1979-07-12 20:18:58.670 ,7,0,33.,24.0,0.,24.0,0.,24.0,0.,24.0
1979-07-12 20:19:22.670 ,5,1,18.,24.0,0.,24.0,0.,24.0,0.,24.0
1979-07-12 20:19:46.670 ,1,1,9.,24.0,2.,24.0,0.,24.0,0.,24.0
1979-07-12 20:20:10.670 ,2,1,5.,24.0,2.,24.0,0.,24.0,0.,24.0
1979-07-12 20:20:34.670 ,6,1,5.,24.0,2.,24.0,0.,24.0,0.,24.0
1979-07-12 20:20:58.670 ,5,1,15.,24.0,0.,24.0,0.,24.0,0.,24.0
1979-07-12 20:21:22.670 ,1,1,9.,24.0,0.,24.0,0.,24.0,0.,24.0
1979-07-12 20:21:46.670 ,2,1,10.,24.0,0.,24.0,0.,24.0,0.,24.0
1979-07-12 20:22:10.670 ,6,1,5.,24.0,0.,24.0,0.,24.0,0.,24.0
1979-07-12 20:22:34.670 ,5,1,21.,24.0,0.,24.0,0.,24.0,0.,24.0
1979-07-12 20:22:58.670 ,1,1,4.,24.0,1.,24.0,0.,24.0,0.,24.0
1979-07-12 20:23:22.670 ,2,1,4.,24.0,1.,24.0,0.,24.0,0.,24.0
1979-07-12 20:23:46.670 ,6,1,5.,24.0,1.,24.0,0.,24.0,0.,24.0
1979-07-12 20:24:10.670 ,5,1,7.,24.0,0.,24.0,0.,24.0,0.,24.0
1979-07-12 20:24:34.670 ,1,1,3.,24.0,0.,24.0,0.,24.0,0.,24.0
1979-07-12 20:24:58.670 ,2,1,5.,24.0,0.,24.0,0.,24.0,0.,24.0
1979-07-12 20:25:22.670 ,6,1,6.,24.0,1.,24.0,0.,24.0,0.,24.0
1979-07-12 20:25:46.670 ,5,1,7.,24.0,0.,24.0,0.,24.0,0.,24.0
1979-07-12 20:26:10.670 ,1,1,5.,24.0,0.,24.0,0.,24.0,0.,24.0
1979-07-12 20:26:34.670 ,2,1,5.,24.0,1.,24.0,0.,24.0,0.,24.0
1979-07-12 20:26:58.670 ,6,1,6.,24.0,1.,24.0,0.,24.0,0.,24.0
1979-07-12 20:27:22.670 ,5,1,23.,24.0,0.,24.0,0.,24.0,0.,24.0
1979-07-12 20:27:46.670 ,1,1,7.,24.0,2.,24.0,0.,24.0,0.,24.0
1979-07-12 20:28:10.670 ,2,1,4.,24.0,2.,24.0,0.,24.0,0.,24.0
1979-07-12 20:28:34.670 ,6,1,8.,24.0,0.,24.0,0.,24.0,0.,24.0
1979-07-12 20:28:58.670 ,5,1,14.,24.0,2.,24.0,0.,24.0,0.,24.0
1979-07-12 20:29:22.670 ,1,1,5.,24.0,4.,24.0,0.,24.0,0.,24.0
1979-07-12 20:29:46.670 ,0,0,4.,24.0,0.,24.0,0.,24.0,0.,24.0
1979-07-12 20:30:10.670 ,0,0,3.,24.0,3.,24.0,0.,24.0,0.,24.0
1979-07-12 20:30:34.670 ,5,1,18.,24.0,0.,24.0,0.,24.0,0.,24.0
1979-07-12 20:30:58.670 ,5,0,3.,24.0,0.,24.0,0.,24.0,0.,24.0
1979-07-12 20:31:22.670 ,4,1,6.,24.0,1.,24.0,0.,24.0,0.,24.0
1979-07-12 20:31:46.670 ,4,0,3.,24.0,1.,24.0,0.,24.0,0.,24.0
1979-07-12 20:32:10.670 ,3,1,4.,24.0,0.,24.0,0.,24.0,0.,24.0
1979-07-12 20:32:34.670 ,3,0,3.,24.0,2.,24.0,0.,24.0,0.,24.0
1979-07-12 20:32:58.670 ,2,1,3.,24.0,0.,24.0,0.,24.0,0.,24.0
1979-07-12 20:33:22.670 ,2,0,5.,24.0,0.,24.0,0.,24.0,0.,24.0
1979-07-12 20:33:46.670 ,1,1,5.,24.0,0.,24.0,0.,24.0,0.,24.0
1979-07-12 20:34:10.670 ,1,0,6.,24.0,1.,24.0,0.,24.0,0.,24.0
1979-07-12 20:34:34.670 ,0,1,3.,24.0,0.,24.0,0.,24.0,0.,24.0
1979-07-12 20:34:58.670 ,0,0,3.,24.0,2.,24.0,0.,24.0,0.,24.0
1979-07-12 20:35:22.670 ,0,1,6.,24.0,1.,24.0,0.,24.0,0.,24.0
1979-07-12 20:35:46.670 ,0,0,6.,24.0,2.,24.0,0.,24.0,0.,24.0
1979-07-12 20:36:10.670 ,1,1,1.,24.0,0.,24.0,0.,24.0,0.,24.0
1979-07-12 20:36:34.670 ,1,0,3.,24.0,2.,24.0,0.,24.0,0.,24.0
1979-07-12 20:36:58.670 ,0,0,6.,24.0,0.,24.0,0.,24.0,0.,24.0
1979-07-12 20:37:22.670 ,0,0,,0,,0,,0,,0
1979-07-12 20:38:35.860 ,0,0,,0,,0,,0,,0
1979-07-12 20:38:58.670 ,0,0,,0,,0,,0,,0
1979-07-12 20:39:35.270 ,0,0,,0,,0,,0,,0
1979-07-12 20:39:46.670 ,0,0,,0,,0,,0,,0
1979-07-12 20:40:32.270 ,0,0,,0,,0,,0,,0
1979-07-12 20:40:34.670 ,0,0,,0,,0,,0,,0
1979-07-12 20:40:58.670 ,0,0,,0,,0,,0,,0
1979-07-12 20:41:22.670 ,0,0,40.,24.0,0.,24.0,0.,24.0,0.,24.0